NOAA 16 DEB, 42368

Orbit data source: Space-Track

NOAA 16 DEB, 42368 is space debris in SSO originally from a launch on Thu, 21 Sep 2000 UTC launched from the Air Force Western Test Range (AFWTR). Debris objects in space refer to the collection of defunct objects orbiting the Earth. Examples of debris include non-operational satellites, rocket bodies, and fragments generated from explosions, collisions, or faulty payload assembly.

Loading next visibility...
Identifier
42368, 2000-055RL
Orbit
SSO
Country
Flag of USUS
Related business
Manufacturer
Unknown
Mission
Spacecraft
Bus & Motor
Unknown
Mass
Unknown
Launch date (UTC)
2000-09-21 (26 years ago)
Launch vehicle
Unknown
Launch site
Air Force Western Test Range (AFWTR)
Object type
Payload
Rocket body
Debris
Shape & HBR
Unknown shape, 0.1 m
Radar Cross Section
Small (<0.1 m²)

Expand to show TLE details & history
Last TLE update: 6 hours ago

TLE from 6 hours ago
0 NOAA 16 DEB
1 42368U 00055RL  26124.47928135  .00003585  00000-0  14298-2 0  9994
2 42368  98.7169 206.4241 0012517 180.6316 179.4851 14.29114281521012
Epoch: 2026-05-04T11:30Z
TLE epoch observation values (Epoch: 2026-05-04T11:30:09.908Z)
Latitude
-0.00011°
Longitude
171.51495°
Altitude
806.599 km
Speed
7.445 km/s
True Right ascension
13h 45m 41s
True Declination
0° 00' 00"
Sunlit
Object was in full shadow at epoch
Visualization orbit readout
Latitude
Unknown
Longitude
Unknown
Altitude
Unknown
Speed
Unknown
Apparent Right ascension
Unknown
Apparent Declination
Unknown
Sunlit
N/A
Visualization observer readout
Local Sidereal Time
01:03:04
Azimuth
Unknown
Elevation
Unknown
Doppler factor
Unknown
Orbital elements
Apogee altitude
800.814 km
Perigee altitude
782.865 km
Semi-major axis
7,169.977 km
Eccentricity
0.00125
Inclination
98.7169°
RAAN
206.4241°
Arg. of periapsis
180.6316°
True anomaly
179.48639°
Mean anomaly
179.4851°
Eccentric anomaly
179.48574°
Mean motion
3.57492 °/min
Orbital period
100.7 mins
BSTAR
0.0014298
Loading maneuver chart data...
Computing Atmospheric mass density...
Loading historical data...
Loading historical data...
Loading historical data...
Loading historical data...
Loading historical data...
Loading historical data...
Loading historical data...

Documentation

Showing up to 5 results
|